Wetterdaten: aktuell Sonntag, 28.05.2017 02:54
Datum Zeit Temperatur Bodentemp. Luftfeuchte Luftdruck Regen Wind Richtung Richtung Sonnenschein
28.05.2017 02:54 17,4 C 10,9 C 68 % 1017 hPa 0,0 l/m 5,5 km/h (2 Bft) O 95 0 min
28.05.2017 02:48 17,5 C 11,0 C 67 % 1017 hPa 0,0 l/m 4,9 km/h (1 Bft) O 90 0 min
28.05.2017 02:44 17,6 C 10,9 C 67 % 1017 hPa 0,0 l/m 5,8 km/h (2 Bft) O 90 0 min
28.05.2017 02:39 17,6 C 11,0 C 66 % 1017 hPa 0,0 l/m 5,8 km/h (2 Bft) O 90 0 min
28.05.2017 02:33 17,7 C 11,0 C 64 % 1017 hPa 0,0 l/m 5,1 km/h (1 Bft) O 85 0 min
28.05.2017 02:29 18,0 C 11,0 C 62 % 1018 hPa 0,0 l/m 4,3 km/h (1 Bft) O 90 0 min
28.05.2017 02:24 18,0 C 11,1 C 62 % 1018 hPa 0,0 l/m 4,0 km/h (1 Bft) O 95 0 min
28.05.2017 02:19 18,4 C 11,3 C 62 % 1018 hPa 0,0 l/m 5,6 km/h (2 Bft) O 95 0 min
28.05.2017 02:13 18,6 C 11,3 C 62 % 1018 hPa 0,0 l/m 6,0 km/h (2 Bft) O 100 0 min
28.05.2017 02:09 18,6 C 11,4 C 62 % 1018 hPa 0,0 l/m 6,8 km/h (2 Bft) O 100 0 min
28.05.2017 02:04 18,7 C 11,4 C 62 % 1018 hPa 0,0 l/m 5,4 km/h (2 Bft) O 100 0 min
28.05.2017 01:59 18,8 C 11,5 C 62 % 1018 hPa 0,0 l/m 6,0 km/h (2 Bft) O 100 0 min
28.05.2017 01:54 18,8 C 11,5 C 62 % 1018 hPa 0,0 l/m 9,6 km/h (2 Bft) O22.5 100 0 min
28.05.2017 01:49 18,8 C 11,5 C 62 % 1018 hPa 0,0 l/m 6,7 km/h (2 Bft) O22.5 85 0 min
28.05.2017 01:44 18,7 C 11,5 C 59 % 1018 hPa 0,0 l/m 6,2 km/h (2 Bft) O22.5 80 0 min
28.05.2017 01:38 19,0 C 11,5 C 59 % 1018 hPa 0,0 l/m 7,3 km/h (2 Bft) O-NO22.5 70 0 min
28.05.2017 01:34 19,1 C 11,7 C 59 % 1018 hPa 0,0 l/m 4,4 km/h (1 Bft) O-NO 70 0 min
28.05.2017 01:29 19,3 C 11,9 C 57 % 1018 hPa 0,0 l/m 4,3 km/h (1 Bft) O-NO 75 0 min
28.05.2017 01:24 19,5 C 12,0 C 56 % 1018 hPa 0,0 l/m 4,8 km/h (1 Bft) O 85 0 min
28.05.2017 01:19 19,7 C 12,1 C 56 % 1018 hPa 0,0 l/m 9,9 km/h (2 Bft) O22.5 100 0 min
28.05.2017 01:14 19,7 C 12,2 C 56 % 1018 hPa 0,0 l/m 7,3 km/h (2 Bft) O45 90 0 min
28.05.2017 01:09 19,8 C 12,1 C 56 % 1018 hPa 0,0 l/m 6,8 km/h (2 Bft) O-SO22.5 105 0 min
28.05.2017 01:03 19,8 C 12,2 C 56 % 1018 hPa 0,0 l/m 10,1 km/h (2 Bft) O22.5 95 0 min
28.05.2017 00:59 20,0 C 12,2 C 55 % 1018 hPa 0,0 l/m 9,1 km/h (2 Bft) O22.5 100 0 min
28.05.2017 00:54 20,0 C 12,3 C 55 % 1018 hPa 0,0 l/m 8,0 km/h (2 Bft) O22.5 100 0 min
28.05.2017 00:49 20,1 C 12,3 C 55 % 1018 hPa 0,0 l/m 8,0 km/h (2 Bft) O22.5 95 0 min
28.05.2017 00:44 20,1 C 12,5 C 55 % 1018 hPa 0,0 l/m 5,9 km/h (2 Bft) O22.5 90 0 min
28.05.2017 00:39 20,3 C 12,6 C 54 % 1018 hPa 0,0 l/m 6,8 km/h (2 Bft) O-SO 105 0 min
28.05.2017 00:34 20,5 C 12,6 C 54 % 1018 hPa 0,0 l/m 10,8 km/h (2 Bft) O-SO22.5 105 0 min
28.05.2017 00:28 20,5 C 12,7 C 53 % 1018 hPa 0,0 l/m 11,5 km/h (2 Bft) O-SO22.5 115 0 min
28.05.2017 00:24 20,7 C 12,9 C 53 % 1018 hPa 0,0 l/m 9,2 km/h (2 Bft) O-SO22.5 115 0 min
28.05.2017 00:19 20,8 C 12,9 C 53 % 1018 hPa 0,0 l/m 11,4 km/h (2 Bft) O-SO45 110 0 min
28.05.2017 00:14 20,9 C 13,0 C 52 % 1018 hPa 0,0 l/m 8,1 km/h (2 Bft) O-SO22.5 115 0 min
28.05.2017 00:09 21,0 C 13,1 C 53 % 1018 hPa 0,0 l/m 8,4 km/h (2 Bft) SO22.5 125 0 min
28.05.2017 00:03 21,0 C 13,1 C 54 % 1018 hPa 0,0 l/m 14,5 km/h (3 Bft) O-SO22.5 115 0 min
27.05.2017 23:59 20,9 C 13,0 C 54 % 1018 hPa 0,0 l/m 15,0 km/h (3 Bft) O-SO45 115 0 min
27.05.2017 23:54 20,5 C 12,7 C 57 % 1018 hPa 0,0 l/m 11,1 km/h (2 Bft) O-SO45 120 0 min
27.05.2017 23:48 20,0 C 12,5 C 58 % 1018 hPa 0,0 l/m 8,7 km/h (2 Bft) SO22.5 125 0 min
27.05.2017 23:44 20,0 C 12,5 C 59 % 1018 hPa 0,0 l/m 10,6 km/h (2 Bft) O-SO22.5 115 0 min
27.05.2017 23:39 19,9 C 12,5 C 59 % 1018 hPa 0,0 l/m 6,9 km/h (2 Bft) O-SO22.5 105 0 min
27.05.2017 23:34 19,9 C 12,5 C 59 % 1018 hPa 0,0 l/m 7,4 km/h (2 Bft) O-SO 105 0 min
27.05.2017 23:28 20,1 C 12,5 C 57 % 1018 hPa 0,0 l/m 6,4 km/h (2 Bft) O22.5 100 0 min
27.05.2017 23:24 20,3 C 12,6 C 57 % 1018 hPa 0,0 l/m 7,2 km/h (2 Bft) O 95 0 min
27.05.2017 23:19 20,4 C 12,7 C 56 % 1018 hPa 0,0 l/m 9,2 km/h (2 Bft) O 100 0 min
27.05.2017 23:13 20,5 C 12,8 C 56 % 1018 hPa 0,0 l/m 7,6 km/h (2 Bft) O-SO22.5 105 0 min
27.05.2017 23:09 20,6 C 12,9 C 55 % 1018 hPa 0,0 l/m 8,9 km/h (2 Bft) O-SO22.5 105 0 min
27.05.2017 23:04 20,8 C 13,0 C 54 % 1018 hPa 0,0 l/m 9,4 km/h (2 Bft) O-SO 105 0 min
27.05.2017 22:59 20,9 C 13,0 C 53 % 1018 hPa 0,0 l/m 9,1 km/h (2 Bft) O-SO22.5 105 0 min
27.05.2017 22:53 20,9 C 13,0 C 53 % 1018 hPa 0,0 l/m 8,7 km/h (2 Bft) O-SO22.5 105 0 min
_ Min-Zeit 04:09 03:49 14:19 17:34 - 03:04 - - -
Minimum _ 12,7 C 7,7 C 5 % 1017 hPa - 0,0 km/h (0 Bft) - - -
_ Max-Zeit 18:19 16:49 04:44 05:39 03:04 15:09 - - 08:44
Maximum _ 30,7 C 23,9 C 98 % 1021 hPa 0,0 l/m 30,0 km/h
SO (5 Bft)
- - 6 min
Durchschnitt _ 22,5 C 15,0 C 46 % 1019 hPa #0,0 l/m 12,1 km/h (2 Bft) O-SO - #0 min.